METEOR 2-20 DEB, 59999

Orbit data source: Space-Track

METEOR 2-20 DEB, 59999 is space debris in LEO originally from a launch on Fri, 28 Sep 1990 UTC launched from the Plesetsk Missile And Space Complex (PKMTR). Debris objects in space refer to the collection of defunct objects orbiting the Earth. Examples of debris include non-operational satellites, rocket bodies, and fragments generated from explosions, collisions, or faulty payload assembly.

Loading next visibility...
Identifier
59999, 1990-086J
Orbit
LEO
Country
Flag of CISCIS
Related business
Manufacturer
Unknown
Mission
Spacecraft
Bus & Motor
Unknown
Mass
Unknown
Launch date (UTC)
1990-09-28 (36 years ago)
Launch vehicle
Unknown
Launch site
Plesetsk Missile And Space Complex (PKMTR)
Object type
Payload
Rocket body
Debris
Shape & HBR
Unknown shape, 0.1 m
Radar Cross Section
Small (<0.1 m²)

Expand to show TLE details & history
Last TLE update: 4 days ago

TLE from 4 days ago
0 METEOR 2-20 DEB
1 59999U 90086J   26169.80541621  .00000663  00000-0  49075-3 0  9998
2 59999  82.5725 188.2687 0009453 309.6762  50.3569 13.93971427500959
Epoch: 2026-06-18T19:19Z
TLE epoch observation values (Epoch: 2026-06-18T19:19:47.960Z)
Latitude
-0.00006°
Longitude
-8.72461°
Altitude
913.267 km
Speed
7.398 km/s
True Right ascension
12h 33m 04s
True Declination
0° 00' 00"
Sunlit
Object was in daylight at epoch
Visualization orbit readout
Latitude
Unknown
Longitude
Unknown
Altitude
Unknown
Speed
Unknown
Apparent Right ascension
Unknown
Apparent Declination
Unknown
Sunlit
N/A
Visualization observer readout
Local Sidereal Time
21:25:56
Azimuth
Unknown
Elevation
Unknown
Doppler factor
Unknown
Orbital elements
Apogee altitude
918.775 km
Perigee altitude
904.992 km
Semi-major axis
7,290.02 km
Eccentricity
0.00095
Inclination
82.5725°
RAAN
188.2687°
Arg. of periapsis
309.6762°
True anomaly
50.44038°
Mean anomaly
50.3569°
Eccentric anomaly
50.39863°
Mean motion
3.48698 °/min
Orbital period
103.24 mins
BSTAR
0.00049075
Loading maneuver chart data...
Computing Atmospheric mass density...
Loading historical data...
Loading historical data...
Loading historical data...
Loading historical data...
Loading historical data...
Loading historical data...
Loading historical data...

Documentation

Showing up to 5 results
|